Weather History for Greenwood, SC

Change the Weather History Date:

Saturday, December 17, 2011

  Actual Average (KAND) Record (KAND)
Temperature  
Mean Temperature 48 °F -  
Max Temperature 59 °F 53 °F 76 °F (1956)
Min Temperature 37 °F 33 °F 15 °F (1972)
Degree Days  
Heating Degree Days 17    
Moisture  
Dew Point 45 °F    
Average Humidity 77    
Maximum Humidity 94    
Minimum Humidity 53    
Precipitation  
Precipitation 0.00 in - - ()
Sea Level Pressure  
Sea Level Pressure 30.17 in    
Wind  
Wind Speed 3 mph (North)    
Max Wind Speed 7 mph    
Max Gust Speed -    
Visibility 10 miles    
Events      
Averages and records for this station are not official NWS values.
T = Trace of Precipitation, MM = Missing Value Source: NWS Daily Summary

Daily Weather History Graph

Daily Weather History Graph

Search for Another Location

Airport:

Trip Planner

Search our weather history database for the weather conditions in past years. The results will help you decide how hot, cold, wet, or windy it might be!

Date:

Astronomy

Dec. 17, 2011 Rise Set
Actual Time 7:28 AM EST 5:20 PM EST
Civil Twilight 7:00 AM EST 5:48 PM EST
Nautical Twilight 6:29 AM EST 6:20 PM EST
Astronomical Twilight 5:58 AM EST 6:50 PM EST
Moon No Moon Rise 12:00 PM EST (12/17)
Length of Visible Light 10h 48m
Length of Day
9h 52m
Waning Gibbous, 54% of the Moon is Illuminated
Dec 17
Waning Gibbous
Dec 17
Last Quarter
Dec 24
New
Jan 1
First Quarter
Jan 9
Full

Hourly Weather History & Observations

Time (EST) Temp. Windchill Dew Point Humidity Pressure Visibility Wind Dir Wind Speed Gust Speed Precip Events Conditions
12:56 AM 59.0 °F - 54.0 °F 83% 30.11 in 10.0 mi Calm Calm - N/A   Mostly Cloudy
1:51 AM 59.0 °F - 53.6 °F 82% 30.12 in 10.0 mi NNW 3.5 mph - N/A   Overcast
1:56 AM 59.0 °F - 55.0 °F 87% 30.11 in 10.0 mi Calm Calm - N/A   Overcast
2:56 AM 57.9 °F - 54.0 °F 87% 30.12 in 10.0 mi NNE 5.8 mph - N/A   Overcast
3:56 AM 57.0 °F - 53.1 °F 87% 30.12 in 10.0 mi North 4.6 mph - N/A   Overcast
4:56 AM 55.9 °F - 52.0 °F 87% 30.14 in 10.0 mi Calm Calm - N/A   Overcast
5:56 AM 55.0 °F - 51.1 °F 86% 30.15 in 10.0 mi ENE 6.9 mph - N/A   Overcast
6:03 AM 53.6 °F - 51.8 °F 94% 30.16 in 10.0 mi ENE 6.9 mph - N/A   Overcast
6:31 AM 53.6 °F - 48.2 °F 82% 30.16 in 10.0 mi East 4.6 mph - N/A   Overcast
6:56 AM 53.1 °F - 48.9 °F 86% 30.16 in 10.0 mi ESE 4.6 mph - N/A   Overcast
7:40 AM 51.8 °F - 48.2 °F 88% 30.18 in 10.0 mi SE 3.5 mph - N/A   Overcast
7:56 AM 52.0 °F - 46.9 °F 83% 30.18 in 10.0 mi SE 5.8 mph - N/A   Overcast
8:56 AM 53.1 °F - 46.9 °F 80% 30.20 in 10.0 mi East 4.6 mph - N/A   Overcast
9:56 AM 52.0 °F - 45.0 °F 77% 30.23 in 10.0 mi NE 6.9 mph - N/A   Overcast
10:56 AM 54.0 °F - 45.0 °F 72% 30.21 in 10.0 mi Variable 3.5 mph - N/A   Overcast
11:56 AM 54.0 °F - 45.0 °F 72% 30.21 in 10.0 mi Calm Calm - N/A   Overcast
12:56 PM 55.0 °F - 45.0 °F 69% 30.17 in 10.0 mi Calm Calm - N/A   Overcast
1:56 PM 55.9 °F - 46.0 °F 69% 30.17 in 10.0 mi Calm Calm - N/A   Mostly Cloudy
2:15 PM 57.2 °F - 46.4 °F 67% 30.17 in 10.0 mi West 5.8 mph - N/A   Mostly Cloudy
2:24 PM 57.2 °F - 46.4 °F 67% 30.17 in 10.0 mi WSW 3.5 mph - N/A   Mostly Cloudy
2:56 PM 55.9 °F - 45.0 °F 67% 30.16 in 10.0 mi Calm Calm - N/A   Clear
3:56 PM 57.9 °F - 44.1 °F 60% 30.15 in 10.0 mi SW 4.6 mph - N/A   Mostly Cloudy
4:56 PM 57.0 °F - 39.9 °F 53% 30.15 in 10.0 mi WSW 3.5 mph - N/A   Partly Cloudy
5:56 PM 50.0 °F - 39.9 °F 68% 30.17 in 10.0 mi Calm Calm - N/A   Clear
6:56 PM 44.1 °F - 39.0 °F 82% 30.19 in 10.0 mi Calm Calm - N/A   Clear
7:56 PM 48.0 °F - 35.1 °F 61% 30.19 in 10.0 mi West 3.5 mph - N/A   Clear
8:56 PM 39.9 °F 36.7 °F 36.0 °F 86% 30.22 in 10.0 mi NNW 4.6 mph - N/A   Clear
9:56 PM 37.9 °F 35.5 °F 35.1 °F 89% 30.25 in 10.0 mi NW 3.5 mph - N/A   Clear
10:56 PM 39.0 °F 35.7 °F 32.0 °F 76% 30.25 in 10.0 mi NNW 4.6 mph - N/A   Clear
11:56 PM 37.9 °F 34.4 °F 28.9 °F 70% 30.25 in 10.0 mi NW 4.6 mph - N/A   Clear